Location: Unspecified
(0.0000°N, 0.0000°E)
Time: 16:36:32
(UTC+01:00)

Iridium 39 - Visible Passes

Search period start: 06 February 2016 00:00
Search period end: 16 February 2016 00:00
Orbit: 776 x 779 km, 86.4° (Epoch: 05 February)

Date Brightness Start Highest point End Pass type
(mag) Time Alt. Az. Time Alt. Az. Time Alt. Az.
06 Feb 7.2 19:29:17 10° NNW 19:34:17 49° W 19:39:19 10° SSW visible
07 Feb 8.4 06:23:08 10° SE 06:27:25 26° E 06:31:41 10° NE visible
08 Feb 9.3 05:52:24 10° ESE 05:53:58 11° E 05:55:31 10° ENE visible
08 Feb 9.2 20:05:19 10° WNW 20:07:48 14° W 20:10:18 10° WSW visible
09 Feb 8.3 19:29:50 10° NNW 19:34:21 30° W 19:38:53 10° SSW visible
10 Feb 7.5 06:22:35 10° SSE 06:27:29 42° E 06:32:21 10° NNE visible
11 Feb 8.8 05:50:25 10° SE 05:54:01 19° E 05:57:37 10° NE visible
12 Feb 9.0 19:30:50 10° NW 19:34:25 19° W 19:38:01 10° SW visible
13 Feb 6.4 06:22:21 10° S 06:27:33 69° E 06:32:42 10° N visible
14 Feb 8.0 05:49:33 10° SSE 05:54:05 30° E 05:58:36 10° NNE visible
15 Feb 9.0 05:18:06 10° ESE 05:20:38 14° E 05:23:10 10° ENE visible
15 Feb 9.6 19:32:59 10° WNW 19:34:29 11° W 19:35:58 10° WSW visible
